Location: Cosy Dell
(34.2789°N, 117.4537°W)
Time: 20:59:10
(UTC+00:00)

Sich 1 Rocket - Pass Details

Date: 14 July 2020
Orbit: 615 x 653 km, 82.5° (Epoch: 13 August)

Event Time Altitude Azimuth Distance (km) Brightness Sun altitude
Exits shadow 11:22:34 14° 181° (S) 1,791 5.5 -15.6°
Maximum altitude 11:26:29 79° 95° (E) 661 3.7 -15.0°
Drops below altitude 10° 11:31:00 10° 9° (N) 2,038 6.9 -14.3°
Sets 11:33:15 0° 8° (N) 2,945 7.8 -13.9°
